Location: Glasgow
(55.8642°N, 4.2518°W)
Time: 05:25:16
(UTC+00:00)

ISS - Pass Details

Date: 10 October 2017
Orbit: 401 x 407 km, 51.6° (Epoch: 25 November)

Event Time Altitude Azimuth Distance (km) Brightness Sun altitude
Rises 19:53:04 0° 272° (W) 2,335 2.1 -12.6°
Reaches altitude 10° 19:55:24 10° 258° (WSW) 1,474 0.2 -12.9°
Maximum altitude 19:58:07 24° 202° (SSW) 904 -1.9 -13.3°
Enters shadow 20:00:22 13° 152° (SSE) 1,323 -1.6 -13.6°
